Regional Weather Roundup
Issued by NWS Charleston, SC

Current Version | Previous Version | Graphics & Text | Print | Product List | Glossary On
Versions: 1 2 3 4 5 6 7 8 9 10 11 12 13 14 15 16 17 18 19 20 21 22 23 24 25 26 27 28 29 30 31 32 33 34 35 36 37 38 39 40 41 42 43 44 45 46 47 48 49 50
112
ASUS42 KCHS 292028
RWRCHS

REGIONAL WEATHER ROUNDUP
NATIONAL WEATHER SERVICE CHARLESTON SC
400 PM EDT SUN MAY 29 2016

NOTE: "FAIR" INDICATES FEW OR NO CLOUDS BELOW 12,000 FEET WITH NO
SIGNIFICANT WEATHER AND/OR OBSTRUCTIONS TO VISIBILITY.

NOT ALL STATIONS ARE QUALITY CONTROLLED. USE DATA WITH CAUTION...
ESPECIALLY DEWPOINT OBSERVATIONS.

SCZ027-030-031-034>040-042>050-292100-
...SOUTHEAST SOUTH CAROLINA...

CITY           SKY/WX    TMP DP  RH WIND       PRES   REMARKS
N CHARLESTON   PTSUNNY   79  67  66 CALM      29.89S
WATERFRONT PRK   N/A     77  70  79 VRB3      29.87F
MOUNT PLEASANT CLOUDY    73  72  94 CALM      29.90S
JOHNS ISLAND     N/A     77  68  73 S8        29.89F
PINOPOLIS        N/A     82  72  69 E8        29.82F
MONCKS CORNER  CLOUDY    75  66  73 E9        29.90S
SUMMERVILLE    CLOUDY    79  72  78 E5        29.89F
BEAUFORT MCAS  LGT RAIN  69  66  90 W17G28    29.89F FOG
BEAUFORT ARPT  CLOUDY    70  64  83 W17G25    29.90F
HILTON HEAD IS CLOUDY    73  64  73 SW9G21    29.96S
WALTERBORO     CLOUDY    72  72 100 NE6       29.90R
ALLENDALE      CLOUDY    68  66  94 N9        29.95R

...SOUTHERN MIDLANDS AND PEE DEE...

CITY           SKY/WX    TMP DP  RH WIND       PRES   REMARKS
GEORGETOWN     CLOUDY    75  68  78 SE13      29.94F
KINGSTREE      MOCLDY    79  68  69 E14       29.92S
ORANGEBURG     HVY RAIN  71  69  93 N10       29.93F FOG
BARNWELL       TSTM      70  70 100 NW12G20   29.98F
AIKEN          CLOUDY    72  64  78 NW14      30.04S THUNDER
MANNING        MOCLDY    79  70  73 E7        29.90S
COLUMBIA       CLOUDY    78  65  63 N17G26    29.97S
SUMTER         LGT RAIN  73  70  88 N12       29.92F
FLORENCE       PTSUNNY   82  73  74 E10       29.93F
MYRTLE BEACH   PTSUNNY   79  66  65 SE10      29.98S
N MYRTLE BEACH CLOUDY    79  72  79 S10       29.97S

$$

GAZ063-065-086>088-099>101-113>116-118-119-134>141-150-292100-
...SOUTHEAST GEORGIA...

CITY           SKY/WX    TMP DP  RH WIND       PRES   REMARKS
SAVANNAH ARPT  CLOUDY    67  63  87 W18       29.99F
HUNTER AAF     PTSUNNY   73  66  78 NW16G26   29.95F
FORT STEWART   PTSUNNY   78  62  56 NW17G30   30.00F
STATESBORO     RAIN      68  67  96 NW7       30.01S
SYLVANIA       RAIN      69  66  92 NW8       30.00S
CLAXTON        FAIR      75  65  71 W12G18    30.02F

...CSRA...CENTRAL AND FAR SOUTHEAST GEORGIA...

CITY           SKY/WX    TMP DP  RH WIND       PRES   REMARKS
THOMSON        CLOUDY    76  65  66 NW10G17   30.08F
AUGUSTA-BUSH   CLOUDY    75  64  68 N15G25    29.99F
AUGUSTA-DANIEL CLOUDY    75  64  68 NW14      30.01F
SWAINSBORO     FAIR      77  61  57 NW14G21   30.04F
VIDALIA        MOSUNNY   79  61  53 N13       30.04F
EASTMAN        FAIR      84  61  45 N8        30.07S
HAZLEHURST     FAIR      87  57  36 N9G17     30.03F
ALMA           SUNNY     86  59  39 N13G18    30.03F
WAYCROSS       MOSUNNY   86  64  46 N10       30.03F
JESUP          FAIR      79  59  50 N12       30.03F
BAXLEY         FAIR      86  57  37 N14       30.03F
BRUNSWICK      SUNNY     86  63  45 NW13G20   30.03F
SAINT SIMONS   SUNNY     83  60  45 NW15G22   30.02F

$$

SCZ027-028-034-036>038-045-046-048>050-GAZ119-141-292100-
...LAKE AND SUPPLEMENTAL COASTAL OBSERVATIONS...

STATION/POSITION TIME  TEMP    WIND        PRES    WAVE   SWELL
                       AIR SEA DIR/SP/G            HT/PER HT/PER/DIR
                 (UTC) (F)     (DEG/KT/KT) (MB)    (FT/S) (FT/S/D)
WINYAH BAY       1900   75     150/ 14     1013.0S
LAKE MURRAY      1900   76     350/  6/ 11 1015.6F
ACE BASIN NERRS  1900   72     270/  6     1013.0S
FORT PULASKI     2000   70 76  270/ 19/ 24 1015.0F
SAPELO ISLAND    2000   79     300/ 15     1017.0S

$$

ANZ835-935-AMZ111-154-330-350-352-354-370-450-454-472-292100-
...C-MAN AND BUOY OBSERVATIONS...

STATION/POSITION TIME  TEMP    WIND        PRES    WAVE   SWELL
                       AIR SEA DIR/SP/G            HT/PER HT/PER/DIR
                 (UTC) (F)     (DEG/KT/KT) (MB)    (FT/S) (FT/S/D)
BUOY 41004       1950   72 78  190/ 19/ 25 1012.9F   6/ 8   2/ 8
BUOY 41008       1950   74 76  280/ 21/ 25 1015.4    4/ 5   2/110/ 8
FOLLY BEACH CMAN 2000   74     200/ 10/ 12 1012.7S
CAPERS NEARSHORE 1908   73 76  170/ 12/ 16 1012.5S
FRIPP NEARSHORE  2008   72 75  260/ 19/ 25 1012.1F


STATION/POSITION TIME  TEMP    WIND        PRES    WAVE   SWELL
                       AIR SEA DIR/SP/G            HT/PER HT/PER/DIR
                 (UTC) (F)     (DEG/KT/KT) (MB)    (FT/S) (FT/S/D)
5E ST. MARYS GA  2001      79                N/A     2/ 8
FRYING PAN BUOY  2000   78 79  150/ 14/ 16 1015.0F
BUOY 41025       1950   79 76  160/ 17/ 21 1017.8F   6/ 8   2/14
CAPE LOOKOUT NC  2000   77     140/ 10/ 11 1017.0F
BUOY 41002       1950   76 76  130/ 12/ 16 1018.8F   4/ 7   3/110/ 7
BUOY 41010       1920   79 80  320/  6/  8 1017.8F
ST AUGUSTINE FL  2000   79 80   80/  9/ 10 1017.3F


$$




USA.gov is the U.S. government's official web portal to all federal, state and local government web resources and services.